Preview of NWS' New Version of Forecast
This preview is not operational and should not be used for support decisions.

Regional Weather Roundup (RWR)

Issued by National Weather Service (NWS)

                            
000
ASUS43 KMKX 231021
RWRWI 

WISCONSIN REGIONAL WEATHER ROUNDUP
NATIONAL WEATHER SERVICE MILWAUKEE/SULLIVAN WI
400 AM CST SAT FEB 23 2019

NOTE: "FAIR" INDICATES FEW OR NO CLOUDS BELOW 12,000 FEET WITH NO
SIGNIFICANT WEATHER AND/OR OBSTRUCTIONS TO VISIBILITY.

WIZ001-002-006>008-014>016-023>028-231100-
NORTHWEST WISCONSIN
  
CITY           SKY/WX    TMP DP  RH WIND       PRES   REMARKS
SUPERIOR ARPT  CLOUDY    25  22  88 NE6       30.14F WCI  18          
ASHLAND        LGT SNOW  26  23  88 NE7       30.16F FOG     WCI  18  
HAYWARD        CLOUDY    27  24  89 E8        30.10F FOG     WCI  19  
SIREN          CLOUDY    26  22  87 CALM      30.10F                  
CUMBERLAND     LGT SNOW  27  23  86 SE7       30.10F WCI  19          
RICE LAKE      LGT SNOW  28  20  75 E8        30.12F WCI  19          
CHETEK         LGT SNOW  27  24  91 SE7       30.11F WCI  19          
LADYSMITH      CLOUDY    28  25  87 SE5       30.14F WCI  23          
EAU CLAIRE     LGT SNOW  27  24  89 E12       30.09F FOG     WCI  17  
MENOMONIE      LGT SNOW  24  24 100 NE7       30.09F WCI  15          
NEW RICHMOND   LGT SNOW  27  22  82 E9        30.07F WCI  18          
OSCEOLA        CLOUDY    28  26  92 E9        30.11F WCI  19          
$$
 
WIZ003>005-009-010-017-018-231100-
NORTH CENTRAL WISCONSIN
  
CITY           SKY/WX    TMP DP  RH WIND       PRES   REMARKS
MANITOWISH WTR NOT AVBL                                               
ARBOR VITAE    FLURRIES  27  25  93 E7        30.13F WCI  19          
WOODRUFF       FLURRIES  27  25  93 E7        30.13F WCI  19          
RHINELANDER    NOT AVBL                                               
EAGLE RIVER    LGT SNOW  25  23  91 E6        30.15F WCI  18          
LAND O LAKES   LGT SNOW  25  23  91 E6        30.17F WCI  18          
PHILLIPS       CLOUDY    26  25  96 SE5       30.12F WCI  21          
TOMAHAWK       CLOUDY    26  21  83 CALM      30.15F                  
MEDFORD        MIX PCPN  23  21  93 E8        30.11F VSB 1/2 WCI  14  
MERRILL        LGT SNOW  28  18  68 SE13      30.16F WCI  17          
$$
 
WIZ029-030-035-036-043>047-231100-
CENTRAL WISCONSIN
  
CITY           SKY/WX    TMP DP  RH WIND       PRES   REMARKS
WAUSAU         FLURRIES  25  20  81 E10       30.14F WCI  15          
MOSINEE        CLOUDY    27  18  69 E10       30.14F WCI  17          
MARSHFIELD     NOT AVBL                                               
STEVENS POINT  CLOUDY    26  17  67 E10G17    30.14F WCI  16          
WAUPACA        CLOUDY    30  22  72 E8        30.18F WCI  23          
WAUTOMA        NOT AVBL                                               
WISC RAPIDS    CLOUDY    28  17  63 E9        30.15F WCI  19          
CAMP DOUGLAS   LGT SNOW  28  27  93 E12         N/A  FOG     WCI  18  
$$
 
WIZ011>013-019>022-031-037>040-048>050-231100-
NORTHEAST WISCONSIN
  
CITY           SKY/WX    TMP DP  RH WIND       PRES   REMARKS
ANTIGO         FLURRIES  25  17  72 E13       30.17F WCI  13          
SHAWANO        CLOUDY    28  20  73 SE5       30.24S WCI  22          
OCONTO         CLOUDY    27  20  77 E6        30.24F WCI  20          
STURGEON BAY   CLOUDY    30  27  88 E7        30.27  WCI  23          
GREEN BAY      CLOUDY    29  23  78 NE6       30.23F WCI  23          
MANITOWOC      CLOUDY    32  28  85 E10       30.23F WCI  24          
APPLETON       CLOUDY    28  21  74 E10       30.18F WCI  19          
CLINTONVILLE   CLOUDY    28  18  66 NE6       30.20F WCI  22          
OSHKOSH        CLOUDY    29  26  89 NE8       30.19F FOG     WCI  21  
$$
 
WIZ032>034-041-042-053>061-231100-
SOUTHWEST WISCONSIN
  
CITY           SKY/WX    TMP DP  RH WIND       PRES   REMARKS
LA CROSSE      MIX PCPN  31  28  89 NW3       30.08F FOG              
SPARTA         CLOUDY    29  25  84 E12       30.10F WCI  19          
VIROQUA        CLOUDY    30  27  88 E9        30.05S WCI  21          
BOSCOBEL       CLOUDY    32  26  78 E5        30.07F HAZE    WCI  27  
PRAIRIE DU CHI MIX PCPN  32  28  86 E9        30.04F WCI  24          
PLATTEVILLE    CLOUDY    32  32 100 E16G22    30.04F WCI  21          
$$

WIZ056-057-062-063-064-067-068-231100-
SOUTH CENTRAL WISCONSIN
  
CITY           SKY/WX    TMP DP  RH WIND       PRES   REMARKS
REEDSBURG      LGT RAIN  29  24  81 E9G17     30.08F WCI  20          
BARABOO/DELLS  MIX PCPN  29  24  79 E14       30.09F WCI  18          
LONE ROCK      FRZ RAIN  33  28  81 E16       30.07F WCI  23          
MINERAL POINT  MIX PCPN  34  32  93 E13G18    30.04F WCI  25          
MADISON        MIX PCPN  31  26  82 E14       30.10F WCI  21          
MIDDLETON      CLOUDY    32  28  84 E12       30.09F WCI  23          
WATERTOWN      CLOUDY    32  29  89 NE8       30.13F WCI  25          
MONROE         CLOUDY    32  29  88 MISG      30.06F                  
JANESVILLE     LGT RAIN  34  30  86 E8        30.09F WCI  27          
$$
 
WIZ051-052-058>065-066-070>072-231100-
SOUTHEAST WISCONSIN
  
CITY           SKY/WX    TMP DP  RH WIND       PRES   REMARKS
MILWAUKEE      CLOUDY    35  28  75 E12       30.15F HAZE    WCI  27  
WAUKESHA       CLOUDY    32  28  86 E5        30.16R WCI  27          
MILWAUKEE/TIMM CLOUDY    32  27  80 E6        30.17S WCI  26          
RACINE         CLOUDY    34  28  79 SE10      30.16F WCI  26          
KENOSHA        CLOUDY    35  30  82 E12       30.13F WCI  27          
FOND DU LAC    CLOUDY    31  26  82 NE9       30.19F WCI  23          
SHEBOYGAN      CLOUDY    32  26  78 E9        30.19F WCI  24          
WEST BEND      CLOUDY    32  30  93 E6        30.17F WCI  26          
JUNEAU         CLOUDY    31  26  83 NE5       30.16F WCI  26          
$$

LSZ147-162-231100-
LAKE SUPERIOR
  
STATION/POSITION TIME  TEMP    WIND        PRES    WAVE
                       AIR SEA DIR/SP/G            HT/PER
                 (UTC) (F)     (DEG/KT/KT) (MB)    (FT/S)
DEVILS ISLAND    1000   28      80/ 13/ 15 1023.3F
SAXON HARBOR     0940   26      70/  2/  3 1021.7F
$$
 
LMZ867-665-643>646-231100-
LAKE MICHIGAN
  
STATION/POSITION TIME  TEMP    WIND        PRES    WAVE
                       AIR SEA DIR/SP/G            HT/PER
                 (UTC) (F)     (DEG/KT/KT) (MB)    (FT/S)
CHAMBERS ISLAND  0940   18      20/  3/  4 1024.4F
NORTHPORT PIER   0903   31      90/  4/  6 1025.7
KEWAUNEE LAKESHO 0954   32      60/  7/ 11 1023.2F
SHEBOYGAN LAKESH 1000   33      70/ 13/ 14 1023.0F
PORT WASHINGTON  0930   34      80/  8/  9 1023.4F
MILWAUKEE LAKESH 0950   34     100/  6/  8   N/A
KENOSHA   LAKESH 1000   34     120/ 11/ 12 1020.7
$$

TC  - TEMPERATURE IN CELSIUS
VSB - VISIBILITY IN STATUTE MILES
WCI - WIND CHILL INDEX
HX  - HEAT INDEX